GW2240 Weather Reports


Display with metric or nautical units.
time (UTC)temp
F
wind
direction
speed
MPH
gust
MPH
rain 1hr
in
rain 24hr
in
rain mn
in
humidity
%
barometer
mb
20260507200020 77 29 2.0 6.0 0.00 0.00 0.00 70 1014.6
20260507194515 77 42 0.0 3.0 0.00 0.00 0.00 70 1014.8
20260507193015 76 348 0.0 4.0 0.00 0.00 0.00 72 1014.7
20260507191511 75 335 0.0 6.0 0.00 0.00 0.00 73 1015.2
20260507190008 74 63 0.0 5.0 0.00 0.00 0.00 73 1015.9
20260507184504 74 341 0.0 5.0 0.00 0.00 0.00 73 1015.8
20260507183002 74 356 0.0 5.0 0.00 0.00 0.00 73 1015.8
20260507181600 73 22 0.0 6.0 0.00 0.00 0.00 74 1016.0
20260507180059 72 46 0.0 5.0 0.00 0.00 0.00 76 1016.2
20260507174555 70 352 1.0 5.0 0.00 0.08 0.00 77 1016.5
20260507173102 70 25 0.0 6.0 0.00 0.08 0.00 78 1016.9
20260507171555 70 346 1.0 5.0 0.00 0.08 0.00 76 1016.7
20260507170055 70 31 0.0 5.0 0.00 0.08 0.00 78 1016.7
20260507164550 69 348 1.0 6.0 0.00 0.08 0.00 77 1016.7
20260507163147 68 14 0.0 6.0 0.00 0.08 0.00 80 1016.4
20260507161551 67 14 0.0 9.0 0.00 0.08 0.00 80 1016.1
20260507160045 67 272 1.0 6.0 0.00 0.08 0.00 81 1015.8
20260507154545 65 346 0.0 6.0 0.00 0.08 0.00 83 1016.1
20260507153043 65 25 1.0 6.0 0.00 0.08 0.00 83 1016.7
20260507151541 64 306 0.0 5.0 0.00 0.08 0.00 83 1016.5
20260507150039 63 11 1.0 8.0 0.00 0.08 0.00 85 1015.9
20260507144539 63 6 0.0 7.0 0.00 0.08 0.00 86 1016.1
20260507143037 63 13 1.0 7.0 0.00 0.08 0.00 86 1016.4
20260507141538 63 8 1.0 5.0 0.00 0.08 0.00 87 1016.2
20260507140038 63 13 1.0 9.0 0.00 0.08 0.00 87 1016.5
20260507134536 62 173 1.0 8.0 0.00 0.08 0.00 87 1016.4
20260507133043 62 27 1.0 7.0 0.00 0.08 0.00 88 1016.5
20260507131543 62 34 1.0 4.0 0.00 0.08 0.00 88 1016.6
20260507130037 62 353 0.0 7.0 0.00 0.08 0.00 87 1016.6
20260507124530 63 350 1.0 8.0 0.00 0.08 0.00 88 1016.5
20260507123026 63 307 1.0 5.0 0.00 0.08 0.00 88 1016.1
20260507121525 63 4 1.0 4.0 0.00 0.08 0.00 89 1015.1
20260507120024 63 11 0.0 5.0 0.00 0.08 0.00 89 1015.2
20260507114522 63 318 0.0 8.0 0.00 0.08 0.00 88 1015.0
20260507113025 63 327 0.0 6.0 0.00 0.08 0.00 88 1015.0
20260507111520 64 358 0.0 4.0 0.00 0.08 0.00 88 1014.6
20260507110016 64 348 0.0 2.0 0.00 0.08 0.00 88 1014.6
20260507104514 64 354 0.0 4.0 0.00 0.08 0.00 88 1014.1
20260507103012 65 4 0.0 2.0 0.00 0.08 0.00 88 1013.9
20260507101511 65 354 0.0 2.0 0.00 0.08 0.00 88 1013.7
20260507100015 65 346 0.0 3.0 0.00 0.08 0.00 88 1013.8
20260507094608 65 24 0.0 3.0 0.00 0.08 0.00 88 1013.4
20260507093014 65 344 0.0 5.0 0.00 0.08 0.00 87 1013.4
20260507091507 65 13 0.0 4.0 0.00 0.08 0.00 88 1013.4
20260507090007 65 25 0.0 4.0 0.00 0.08 0.00 88 1013.5
20260507084517 65 12 0.0 5.0 0.00 0.08 0.00 87 1013.4
20260507083004 65 14 1.0 10.0 0.00 0.08 0.00 87 1013.5
20260507081501 66 38 1.0 6.0 0.00 0.08 0.00 86 1013.3
20260507080101 66 54 1.0 7.0 0.00 0.08 0.00 86 1013.4
20260507074605 66 349 0.0 4.0 0.00 0.08 0.00 87 1013.6
20260507073057 66 7 0.0 6.0 0.00 0.08 0.00 86 1013.5
20260507071605 67 335 0.0 4.0 0.00 0.08 0.00 86 1013.5
20260507070106 67 46 0.0 4.0 0.00 0.08 0.00 85 1014.0
20260507064557 67 357 0.0 5.0 0.00 0.08 0.00 86 1013.8
20260507063053 67 329 0.0 5.0 0.00 0.08 0.00 85 1013.7
20260507061553 67 21 0.0 6.0 0.00 0.08 0.00 85 1013.9
20260507060051 67 247 0.0 5.0 0.00 0.08 0.00 85 1013.4
20260507054608 67 350 0.0 5.0 0.00 0.08 0.00 84 1013.7
20260507053058 67 350 0.0 5.0 0.00 0.08 0.00 85 1013.7
20260507051554 67 5 0.0 4.0 0.00 0.08 0.00 85 1013.6
20260507050050 67 360 0.0 8.0 0.00 0.08 0.00 84 1013.5
20260507044552 68 14 0.0 4.0 0.00 0.08 0.08 84 1013.6
20260507043042 68 358 0.0 4.0 0.00 0.08 0.08 84 1013.3
20260507041545 68 359 0.0 4.0 0.00 0.08 0.08 84 1013.2
20260507040139 69 21 1.0 6.0 0.00 0.08 0.08 84 1013.4
20260507034538 69 339 0.0 3.0 0.00 0.08 0.08 83 1013.4
20260507033036 70 13 0.0 5.0 0.00 0.08 0.08 83 1013.1
20260507031537 70 41 0.0 3.0 0.00 0.08 0.08 83 1012.9
20260507030031 70 344 0.0 5.0 0.00 0.08 0.08 83 1012.6
20260507024533 71 15 0.0 7.0 0.00 0.08 0.08 83 1012.1
20260507023023 71 47 1.0 6.0 0.00 0.08 0.08 83 1011.8
20260507021528 72 19 0.0 5.0 0.00 0.08 0.08 84 1011.6
20260507020020 72 7 0.0 4.0 0.00 0.08 0.08 84 1011.0
20260507014521 72 13 0.0 4.0 0.00 0.08 0.08 84 1010.7
20260507013016 73 14 0.0 5.0 0.00 0.08 0.08 84 1010.6
20260507011520 73 19 0.0 5.0 0.00 0.08 0.08 84 1010.2
20260507010021 74 2 0.0 6.0 0.00 0.08 0.08 84 1010.2
20260507004511 74 10 0.0 7.0 0.00 0.08 0.08 85 1009.9
20260507003010 75 342 0.0 9.0 0.00 0.08 0.08 84 1009.6
20260507001509 76 305 1.0 7.0 0.00 0.08 0.08 85 1009.3
20260507000009 77 331 0.0 7.0 0.00 0.08 0.08 84 1009.2
20260506234506 79 44 0.0 8.0 0.00 0.08 0.08 85 1009.1
20260506233006 81 13 0.0 0.0 0.00 0.08 0.08 89 1008.6
20260506231506 81 13 0.0 0.0 0.00 0.08 0.08 89 1008.5
20260506230006 81 13 0.0 0.0 0.00 0.08 0.08 90 1008.5
20260506224504 81 13 0.0 0.0 0.00 0.08 0.08 89 1008.5
20260506223004 82 13 0.0 0.0 0.00 0.08 0.08 87 1008.3
20260506221505 82 13 0.0 0.0 0.00 0.08 0.08 87 1008.2
20260506220003 82 13 0.0 0.0 0.00 0.08 0.08 86 1008.1
20260506214502 82 342 0.0 0.0 0.00 0.08 0.08 86 1008.3
20260506213002 82 342 0.0 0.0 0.00 0.08 0.08 87 1008.4
20260506211600 81 4 0.0 0.0 0.00 0.08 0.08 89 1008.2
20260506210058 81 360 0.0 0.0 0.00 0.08 0.08 90 1008.6
20260506204600 81 360 0.0 0.0 0.00 0.08 0.08 89 1008.6
20260506203057 81 17 0.0 0.0 0.00 0.08 0.08 92 1008.7
20260506201555 80 8 0.0 0.0 0.00 0.08 0.08 93 1008.9